Home > Weather > Perpignan > Past weeks

Flag for France Weather for the Past 2 Weeks in Perpignan, France

Now
45 °F

Overcast.


Feels Like: 41 °F
Forecast: 43 / 58 °F
Wind: 6 mph from West

Location: Perpignan Airport

Current Time: Feb 11, 2016 at 5:33:03 AM

Latest Report: Feb 11, 2016 at 5:00 AM


Visibility: N/A

Pressure: 29.86 "Hg

Humidity: 81%

Dew point: 39 °F

Location of PerpignanLocation

Historic Weather in Perpignan — Graph

°F

Perpignan Temperature Yesterday

Maximum temperature yesterday: 55 °F (at 2:30 PM)
Minimum temperature yesterday: 43 °F (at 11:30 PM)
Average temperature yesterday: 48 °F

High & Low Weather Summary for the Past Weeks

 TemperatureHumidityPressure
High70 °F (Feb 8, 1:30 PM)93% (Jan 30, 9:00 AM)30.63 "Hg (Jan 30, 9:00 AM)
Low41 °F (Jan 30, 8:30 AM)25% (Feb 4, 3:30 PM)29.56 "Hg (Feb 9, 4:00 PM)
Average54 °F61%30.22 "Hg
* Reported Jan 27 5:00 AM — Feb 11 4:30 AM, Perpignan, Weather by CustomWeather, © 2016

Note: Actual official high and low records may vary slightly from our data, if they occured in-between our weather recording intervals... More about our weather records

Advertising

Perpignan Weather History for the Previous 24 Hours

 ConditionsComfort  
Time TempWeatherWind HumidityBarometerVisibility
4:30 AM
Thu, Feb 11
43 °FOvercast.7 mph87%29.86 "HgN/A
4:00 AM43 °FPassing clouds.6 mph87%29.86 "HgN/A
3:00 AM43 °FPassing clouds.5 mph87%29.86 "HgN/A
2:30 AM43 °FOvercast.2 mph87%29.86 "HgN/A
2:00 AM43 °FOvercast.2 mph87%29.86 "HgN/A
1:30 AM41 °FMostly cloudy.No wind93%29.86 "HgN/A
1:00 AM41 °FMostly cloudy.3 mph87%29.86 "HgN/A
12:30 AM41 °FPassing clouds.6 mph87%29.86 "HgN/A
12:00 AM41 °FPassing clouds.6 mph87%29.83 "HgN/A
11:30 PM
Wed, Feb 10
43 °FPassing clouds.No wind81%29.83 "HgN/A
10:30 PM45 °FPassing clouds.5 mph81%29.83 "HgN/A
10:00 PM45 °FOvercast.6 mph81%29.83 "HgN/A
9:30 PM45 °FPartly cloudy.7 mph81%29.80 "HgN/A
9:00 PM46 °FPassing clouds.2 mph71%29.83 "HgN/A
8:30 PM46 °FOvercast.2 mph76%29.83 "HgN/A
8:00 PM48 °FOvercast.3 mph71%29.83 "HgN/A
7:30 PM48 °FOvercast.5 mph76%29.83 "HgN/A
7:00 PM48 °FLight rain. Mostly cloudy.6 mph76%29.80 "HgN/A
6:30 PM48 °FLight rain. Mostly cloudy.6 mph76%29.80 "HgN/A
6:00 PM48 °FLight rain. Mostly cloudy.5 mph76%29.80 "HgN/A
5:30 PM48 °FDrizzle. Mostly cloudy.7 mph76%29.80 "HgN/A
5:00 PM50 °FDrizzle. Broken clouds.8 mph71%29.77 "HgN/A
4:30 PM50 °FLight rain. Mostly cloudy.6 mph62%29.77 "HgN/A
4:00 PM52 °FMostly cloudy.6 mph47%29.77 "HgN/A
3:30 PM54 °FLight rain. Mostly cloudy.6 mph47%29.74 "HgN/A
3:00 PM54 °FMostly cloudy.5 mph47%29.74 "HgN/A
2:30 PM55 °FBroken clouds.1 mph41%29.77 "HgN/A
2:00 PM54 °FMostly cloudy.3 mph44%29.77 "HgN/A
1:30 PM54 °FMostly cloudy.6 mph44%29.80 "HgN/A
1:00 PM54 °FOvercast.7 mph44%29.83 "HgN/A
12:30 PM54 °FOvercast.9 mph41%29.83 "HgN/A
12:00 PM54 °FOvercast.13 mph41%29.86 "HgN/A
11:30 AM54 °FScattered clouds.12 mph44%29.86 "HgN/A
11:00 AM52 °FPartly sunny.13 mph47%29.86 "HgN/A
10:30 AM50 °FOvercast.17 mph54%29.86 "HgN/A
10:00 AM48 °FBroken clouds.17 mph54%29.86 "HgN/A
9:30 AM46 °FOvercast.16 mph57%29.89 "HgN/A
9:00 AM46 °FPartly sunny.14 mph62%29.89 "HgN/A
8:30 AM46 °FBroken clouds.12 mph62%29.89 "HgN/A
8:00 AM45 °FPassing clouds.6 mph66%29.86 "HgN/A
7:30 AM45 °FOvercast.10 mph66%29.86 "HgN/A
7:00 AM46 °FLight rain. Mostly cloudy.14 mph62%29.86 "HgN/A
6:30 AM46 °FPartly cloudy.21 mph57%29.86 "HgN/A
6:00 AM46 °FPassing clouds.20 mph57%29.86 "HgN/A
5:30 AM46 °FClear.14 mph62%29.83 "Hg10 mi
5:00 AM45 °FPassing clouds.9 mph71%29.83 "HgN/A
Weather by CustomWeather, © 2016

See weather overviewHow to use our weather pages